This demonstration page uses our WeatherBlox Daily Observations layout. Learn more.

Left ArrowRight Arrow

Hourly Observations for July 23, 2020

Temp ( °F °C ) Dew Point ( °F °C ) Humidity (%) Winds ( mph kmh ) Pressure ( in mb ) Visibility ( mi km ) Precip ( " mm )
12:32 am 00:32 Cloudy with Nearby Thunderstorms 81 27.2 62 16.7 53 53 SE 13 20 29.79 1009 10 16.0934 0 0
12:51 am 00:51 Mostly Cloudy 80 26.7 63 17.2 56 56 SE 15 24 29.82 1010 10 16.0934 0 0
1:51 am 01:51 Cloudy with Light Rain 74 23.3 67 19.4 79 79 E 13 20 29.84 1011 9 14.48406 0.001 0.001
2:51 am 02:51 Cloudy with Light Rain 72 22.2 68 20 87 87 Calm 29.86 1011 10 16.0934 0.18 4.572
3:51 am 03:51 Mostly Cloudy with Light Rain 72 22.2 68 20 87 87 NNE 5 7 29.84 1010 10 16.0934 0.02 0.508
4:51 am 04:51 Mostly Cloudy 70 21.1 68 20 93 93 SSW 8 13 29.83 1010 10 16.0934 0.03 0.762
5:51 am 05:51 Mostly Cloudy with Light Rain 70 21.1 67 19.4 90 90 ENE 3 6 29.86 1011 10 16.0934 0.001 0.001
6:51 am 06:51 Mostly Cloudy 71 21.7 69 20.6 94 94 SSE 7 11 29.88 1012 10 16.0934 0.02 0.508
7:51 am 07:51 Mostly Cloudy 71 21.7 68 20 90 90 SSE 10 17 29.93 1014 10 16.0934 0 0
8:51 am 08:51 Cloudy with Light Rain 70 21.1 68 20 93 93 SE 10 17 29.95 1014 10 16.0934 0.01 0.254
9:03 am 09:03 Cloudy with Light Rain 70 21.1 68 20 93 93 ESE 8 13 29.95 1014 10 16.0934 0.001 0.001
9:42 am 09:42 Cloudy with Light Rain 70 21.1 68 20 93 93 ESE 9 15 29.94 1014 10 16.0934 0.01 0.254
9:51 am 09:51 Cloudy with Light Rain 70 21.1 68 20 93 93 ESE 10 17 29.95 1014 10 16.0934 0.01 0.254
10:51 am 10:51 Cloudy 72 22.2 69 20.6 91 91 E 5 7 29.93 1014 10 16.0934 0.001 0.001
12:51 pm 12:51 Mostly Sunny 82 27.8 62 16.7 51 51 E 8 13 29.86 1011 10 16.0934 0 0
1:51 pm 13:51 Cloudy 81 27.2 64 17.8 57 57 SE 8 13 29.84 1010 10 16.0934 0 0
2:51 pm 14:51 Cloudy 82 27.8 64 17.8 55 55 VRB 5 7 29.83 1010 10 16.0934 0 0
3:51 pm 15:51 Mostly Sunny 85 29.4 56 13.3 37 37 Calm 29.79 1009 10 16.0934 0 0
4:51 pm 16:51 Sunny 85 29.4 56 13.3 37 37 WNW 3 6 29.78 1008 10 16.0934 0 0
5:51 pm 17:51 Sunny 85 29.4 57 13.9 39 39 Calm 29.77 1008 10 16.0934 0 0
6:51 pm 18:51 Sunny 84 28.9 58 14.4 41 41 S 5 7 29.78 1008 10 16.0934 0 0
7:51 pm 19:51 Clear 82 27.8 64 17.8 55 55 Calm 29.78 1009 10 16.0934 0 0
8:51 pm 20:51 Clear 80 26.7 69 20.6 69 69 E 3 6 29.8 1009 10 16.0934 0 0
9:51 pm 21:51 Clear 79 26.1 68 20 69 69 ENE 5 7 29.8 1009 10 16.0934 0 0
10:51 pm 22:51 Clear 79 26.1 66 18.9 65 65 ESE 6 9 29.81 1010 10 16.0934 0 0
11:51 pm 23:51 Clear 78 25.6 66 18.9 67 67 E 5 7 29.82 1010 10 16.0934 0 0

Powered by AerisWeather